Regional Weather Roundup
Issued by NWS Sioux Falls, SD

Home | Current Version | Previous Version | Text Only | Print | Product List | Glossary On
Versions: 1 2 3 4 5 6 7 8 9 10 11 12 13 14 15 16 17 18 19 20 21 22 23 24 25 26 27 28 29 30 31 32 33 34 35 36 37 38 39 40 41 42 43 44 45 46 47 48 49 50
000
ASUS43 KFSD 260610
RWRFSD

WEATHER ROUNDUP FOR SE SOUTH DAKOTA/SW MINNESOTA/NW IOWA
NATIONAL WEATHER SERVICE SIOUX FALLS SD
100 AM CDT TUE MAY 26 2015

NOTE: "FAIR" INDICATES FEW OR NO CLOUDS BELOW 12,000 FEET WITH NO
SIGNIFICANT WEATHER AND OR OBSTRUCTIONS TO VISIBILITY.


SDZ038>040-050-052>070-260700-
SOUTHEAST SOUTH DAKOTA

CITY           SKY/WX    TMP DP  RH WIND       PRES   REMARKS
BROOKINGS      MOCLDY    54  50  87 CALM      29.85R
CHAMBERLAIN    CLOUDY    56  50  80 N9        29.87F
6HR MIN TEMP:  55; 6HR MAX TEMP:  64;

HURON          MOCLDY    54  50  86 N9        29.86F
6HR MIN TEMP:  53; 6HR MAX TEMP:  65;

MADISON        FAIR      54  54 100 NE7       29.84R
MITCHELL       MOCLDY    56  53  90 N6        29.85S
6HR MIN TEMP:  56; 6HR MAX TEMP:  68;

SIOUX FALLS    CLOUDY    58  54  86 NE7       29.82S
6HR MIN TEMP:  57; 6HR MAX TEMP:  69;

WINNER         CLOUDY    55  49  80 N8        29.88S
YANKTON        CLOUDY    61  57  88 N5        29.80S
$$

MNZ071-072-080-081-089-090-097-098-260700-
SOUTHWEST MINNESOTA

CITY           SKY/WX    TMP DP  RH WIND       PRES   REMARKS
FAIRMONT       CLOUDY    63  55  77 NE6       29.80F
JACKSON        CLOUDY    59  57  94 NE3       29.83S
LUVERNE        LGT RAIN  59  54  82 N7        29.81F
MARSHALL       PTCLDY    55  48  76 NW7       29.82F
6HR MIN TEMP:  54; 6HR MAX TEMP:  66;

MONTEVIDEO     CLOUDY    57  55  94 NE8       29.82F
PIPESTONE      PTCLDY    55  54  94 NE6       29.82F
REDWOOD FALLS  MOCLDY    56  54  93 NW8       29.80F
TRACY          PTCLDY    55  54  96 NW6       29.82F
WINDOM         CLOUDY    57  55  94 CALM      29.81F
WORTHINGTON    CLOUDY    57  54  88 NE3       29.82S
$$

IAZ001>003-012>014-020>022-031-032-NEZ013-014-SDZ071-260700-
NORTHWEST IOWA

CITY           SKY/WX    TMP DP  RH WIND       PRES   REMARKS
CHEROKEE       CLOUDY    64  58  83 S9        29.78F
DENISON        CLOUDY    63  61  94 SE8       29.76F
ESTHERVILLE    LGT RAIN  64  59  83 W7        29.80F
LE MARS        CLOUDY    64  61  88 S7        29.79S
ORANGE CITY    CLOUDY    63  59  88 CALM      29.79S
SHELDON        CLOUDY    63  61  94 NE8       29.78F
SIOUX CITY     CLOUDY    66  57  72 SW7       29.79R
6HR MIN TEMP:  65; 6HR MAX TEMP:  77;

SPENCER        CLOUDY    62  60  93 NW3       29.80F
6HR MIN TEMP:  62; 6HR MAX TEMP:  75; 6HR PCP:  0.08;

STORM LAKE     CLOUDY    63  59  88 S10       29.81F
$$

ABBREVIATIONS USED IN REMARKS
   TC - TEMPERATURE IN CELSIUS
  WCI - WIND CHILL INDEX
   HX - HEAT INDEX
  VSB - VISIBILITY



USA.gov is the U.S. government's official web portal to all federal, state and local government web resources and services.